UAE583 OMDB-VGHS

Flight info

Callsign UAE583
Flight time N/A
Altitude 37000
Route IVURO M428 TARBO Z440 DAMUM B524 ALPOR M504 TELEM A791 CEA A462 DAC
Aircraft B77W/H-SDE1E2E3FGHIJ2J3J4J5M1RWXY/LB1D1

Departure

Time 2026-04-20 04:15
Airport Dubai International Airport (OMDB)

Arrival

Time N/A
Airport Hazrat Shahjalal International Airport (VGHS)
Time Latitude Longitude Altitude Speed Heading
2026-04-20 02:58 25.24775 55.36499 28 ft 0 kts 211°
2026-04-20 03:50 25.24780 55.36502 31 ft 4 kts 212°
2026-04-20 03:50 25.24804 55.36517 29 ft 4 kts 208°
2026-04-20 03:51 25.24827 55.36530 32 ft 4 kts 199°
2026-04-20 03:51 25.24848 55.36535 26 ft 2 kts 169°
2026-04-20 03:51 25.24863 55.36527 26 ft 2 kts 134°
2026-04-20 03:51 25.24872 55.36516 26 ft 2 kts 126°
2026-04-20 03:52 25.24879 55.36506 26 ft 2 kts 124°
2026-04-20 03:52 25.24880 55.36504 27 ft 0 kts 123°
2026-04-20 04:00 25.24877 55.36510 25 ft 4 kts 122°
2026-04-20 04:00 25.24850 55.36556 26 ft 8 kts 121°
2026-04-20 04:01 25.24823 55.36610 26 ft 8 kts 117°
2026-04-20 04:01 25.24801 55.36667 27 ft 8 kts 110°
2026-04-20 04:01 25.24785 55.36727 27 ft 8 kts 102°
2026-04-20 04:01 25.24773 55.36788 27 ft 8 kts 104°
2026-04-20 04:02 25.24753 55.36846 27 ft 8 kts 116°
2026-04-20 04:02 25.24735 55.36903 27 ft 8 kts 85°
2026-04-20 04:02 25.24772 55.36950 27 ft 8 kts 35°
2026-04-20 04:02 25.24817 55.36981 29 ft 6 kts 31°
2026-04-20 04:03 25.24855 55.37007 31 ft 6 kts 31°
2026-04-20 04:03 25.24895 55.37034 34 ft 9 kts 31°
2026-04-20 04:03 25.24987 55.37095 34 ft 17 kts 31°
2026-04-20 04:03 25.25051 55.37139 30 ft 12 kts 37°
2026-04-20 04:04 25.25056 55.37215 30 ft 11 kts 117°
2026-04-20 04:04 25.25017 55.37286 30 ft 11 kts 121°
2026-04-20 04:04 25.24977 55.37357 30 ft 11 kts 122°
2026-04-20 04:04 25.24937 55.37428 30 ft 11 kts 122°
2026-04-20 04:05 25.24897 55.37498 30 ft 11 kts 122°
2026-04-20 04:05 25.24858 55.37569 30 ft 11 kts 122°
2026-04-20 04:05 25.24818 55.37640 30 ft 11 kts 122°
2026-04-20 04:05 25.24778 55.37711 30 ft 11 kts 122°
2026-04-20 04:06 25.24738 55.37782 29 ft 11 kts 122°
2026-04-20 04:06 25.24698 55.37853 29 ft 11 kts 122°
2026-04-20 04:06 25.24686 55.37874 29 ft 0 kts 122°
2026-04-20 04:06 25.24675 55.37893 31 ft 6 kts 122°
2026-04-20 04:07 25.24658 55.37924 29 ft 2 kts 122°
2026-04-20 04:07 25.24657 55.37925 29 ft 1 kts 122°
2026-04-20 04:07 25.24652 55.37933 29 ft 1 kts 122°
2026-04-20 04:07 25.24648 55.37941 28 ft 3 kts 122°
2026-04-20 04:08 25.24623 55.37986 30 ft 8 kts 122°
2026-04-20 04:08 25.24608 55.38012 30 ft 0 kts 122°
2026-04-20 04:08 25.24607 55.38015 30 ft 0 kts 122°
2026-04-20 04:09 25.24606 55.38016 30 ft 2 kts 122°
2026-04-20 04:09 25.24582 55.38060 30 ft 8 kts 122°
2026-04-20 04:09 25.24550 55.38115 29 ft 9 kts 122°
2026-04-20 04:09 25.24546 55.38123 29 ft 0 kts 122°
2026-04-20 04:10 25.24543 55.38129 29 ft 3 kts 122°
2026-04-20 04:10 25.24527 55.38156 29 ft 5 kts 122°
2026-04-20 04:10 25.24508 55.38190 29 ft 6 kts 120°
2026-04-20 04:10 25.24505 55.38234 28 ft 6 kts 75°
2026-04-20 04:11 25.24522 55.38258 28 ft 1 kts 33°
2026-04-20 04:11 25.24524 55.38259 28 ft 0 kts 33°
2026-04-20 04:13 25.24525 55.38259 28 ft 0 kts 33°
2026-04-20 04:13 25.24537 55.38268 27 ft 4 kts 33°
2026-04-20 04:13 25.24554 55.38280 26 ft 5 kts 33°
2026-04-20 04:13 25.24587 55.38304 27 ft 6 kts 32°
2026-04-20 04:14 25.24627 55.38310 27 ft 6 kts 342°
2026-04-20 04:14 25.24663 55.38282 28 ft 7 kts 306°
2026-04-20 04:14 25.24667 55.38275 28 ft 0 kts 302°
2026-04-20 04:14 25.24688 55.38237 28 ft 20 kts 302°
2026-04-20 04:15 25.24884 55.37887 35 ft 92 kts 301°
2026-04-20 04:15 25.25348 55.37051 35 ft 161 kts 301°
2026-04-20 04:15 25.25996 55.35873 350 ft 184 kts 302°
2026-04-20 04:15 25.26675 55.34664 1039 ft 184 kts 301°
2026-04-20 04:16 25.27356 55.33436 1626 ft 198 kts 301°
2026-04-20 04:16 25.28123 55.32058 1936 ft 221 kts 302°
2026-04-20 04:16 25.28946 55.30606 2655 ft 224 kts 308°
2026-04-20 04:16 25.30165 55.29603 3273 ft 227 kts 346°
2026-04-20 04:17 25.31713 55.29495 3867 ft 225 kts
2026-04-20 04:17 25.33326 55.29544 4060 ft 237 kts
2026-04-20 04:17 25.34978 55.29587 4638 ft 237 kts
2026-04-20 04:17 25.36607 55.29631 5539 ft 234 kts
2026-04-20 04:18 25.38249 55.29673 6203 ft 238 kts
2026-04-20 04:18 25.39851 55.30121 6745 ft 245 kts 30°
2026-04-20 04:18 25.41154 55.31456 6992 ft 269 kts 50°
2026-04-20 04:18 25.42344 55.33120 7510 ft 280 kts 49°
2026-04-20 04:19 25.43575 55.34821 8182 ft 286 kts 49°
2026-04-20 04:19 25.44824 55.36548 8970 ft 289 kts 49°
2026-04-20 04:19 25.46089 55.38287 9760 ft 291 kts 49°
2026-04-20 04:19 25.47368 55.40039 10464 ft 295 kts 49°
2026-04-20 04:20 25.48685 55.41846 10983 ft 311 kts 50°
2026-04-20 04:20 25.50066 55.43810 11180 ft 338 kts 50°
2026-04-20 04:20 25.51533 55.45965 11361 ft 361 kts 55°
2026-04-20 04:20 25.52502 55.48611 11678 ft 383 kts 79°
2026-04-20 04:21 25.52431 55.51596 12386 ft 396 kts 102°
2026-04-20 04:21 25.51321 55.54396 13202 ft 399 kts 121°
2026-04-20 04:21 25.49792 55.57002 13883 ft 408 kts 123°
2026-04-20 04:21 25.48218 55.59636 14619 ft 413 kts 122°
2026-04-20 04:22 25.46646 55.62308 15441 ft 416 kts 122°
2026-04-20 04:22 25.45083 55.65023 16240 ft 420 kts 122°
2026-04-20 04:22 25.43517 55.67770 16980 ft 425 kts 121°
2026-04-20 04:22 25.42179 55.70689 17605 ft 428 kts 107°
2026-04-20 04:23 25.41522 55.73932 18213 ft 435 kts 99°
2026-04-20 04:23 25.40947 55.77195 18859 ft 439 kts 101°
2026-04-20 04:23 25.40277 55.80543 19553 ft 443 kts 102°
2026-04-20 04:23 25.39562 55.83877 20200 ft 447 kts 103°
2026-04-20 04:24 25.38839 55.87194 20812 ft 453 kts 103°
2026-04-20 04:24 25.38103 55.90602 21430 ft 458 kts 103°
2026-04-20 04:24 25.37365 55.94044 22032 ft 463 kts 103°
2026-04-20 04:24 25.36622 55.97525 22652 ft 467 kts 103°
2026-04-20 04:25 25.35872 56.01039 23245 ft 472 kts 103°
2026-04-20 04:25 25.35114 56.04589 23758 ft 477 kts 103°
2026-04-20 04:25 25.34350 56.08168 24276 ft 480 kts 103°
2026-04-20 04:25 25.33578 56.11773 24818 ft 482 kts 103°
2026-04-20 04:26 25.32799 56.15387 25360 ft 485 kts 104°
2026-04-20 04:26 25.31844 56.18969 25870 ft 488 kts 109°
2026-04-20 04:26 25.31074 56.21314 26210 ft 490 kts 111°
2026-04-20 04:27 25.25905 56.36443 28283 ft 503 kts 110°
2026-04-20 04:27 25.24714 56.40095 28713 ft 506 kts 110°
2026-04-20 04:28 25.23510 56.43757 29111 ft 509 kts 110°
2026-04-20 04:28 25.22294 56.47437 29508 ft 511 kts 110°
2026-04-20 04:28 25.21073 56.51128 29993 ft 511 kts 110°
2026-04-20 04:28 25.19855 56.54810 30468 ft 510 kts 110°
2026-04-20 04:29 25.18635 56.58494 30885 ft 510 kts 110°
2026-04-20 04:29 25.17353 56.62147 31264 ft 511 kts 112°
2026-04-20 04:29 25.15989 56.65776 31644 ft 512 kts 112°
2026-04-20 04:29 25.14608 56.69348 32047 ft 512 kts 113°
2026-04-20 04:30 25.13204 56.72960 32442 ft 512 kts 112°
2026-04-20 04:30 25.11807 56.76578 32834 ft 512 kts 112°
2026-04-20 04:30 25.10419 56.80198 33230 ft 512 kts 112°
2026-04-20 04:30 25.09038 56.83824 33616 ft 512 kts 112°
2026-04-20 04:31 25.07664 56.87449 33976 ft 512 kts 111°
2026-04-20 04:31 25.06291 56.91076 34276 ft 513 kts 111°
2026-04-20 04:31 25.04913 56.94714 34543 ft 514 kts 111°
2026-04-20 04:31 25.03529 56.98362 34812 ft 515 kts 111°
2026-04-20 04:32 25.02146 57.02006 35101 ft 516 kts 111°
2026-04-20 04:32 25.00756 57.05658 35383 ft 516 kts 111°
2026-04-20 04:32 24.99364 57.09313 35648 ft 517 kts 111°
2026-04-20 04:32 24.97971 57.12969 35915 ft 518 kts 111°
2026-04-20 04:33 24.96573 57.16632 36184 ft 518 kts 111°
2026-04-20 04:33 24.95173 57.20297 36445 ft 519 kts 110°
2026-04-20 04:33 24.93772 57.23965 36691 ft 519 kts 110°
2026-04-20 04:33 24.92367 57.27640 36819 ft 523 kts 110°
2026-04-20 04:34 24.89549 57.34997 36866 ft 524 kts 110°
2026-04-20 04:34 24.86726 57.42351 36868 ft 517 kts 110°
2026-04-20 04:35 24.83930 57.49625 36876 ft 514 kts 110°
2026-04-20 04:35 24.81143 57.56868 36882 ft 513 kts 110°
2026-04-20 04:36 24.76958 57.67722 36880 ft 514 kts 110°
2026-04-20 04:37 24.74214 57.74980 36879 ft 513 kts 107°
2026-04-20 04:37 24.72393 57.82483 36880 ft 509 kts 95°
2026-04-20 04:38 24.71439 57.90189 36884 ft 509 kts 94°
2026-04-20 04:38 24.70525 57.97919 36880 ft 510 kts 94°
2026-04-20 04:39 24.69568 58.05651 36880 ft 511 kts 94°
2026-04-20 04:39 24.63207 58.54969 36879 ft 511 kts 95°
2026-04-20 04:40 24.42104 59.77944 36792 ft 508 kts 98°
2026-04-20 04:40 24.16174 60.96440 36859 ft 493 kts 101°
2026-04-20 04:41 24.10026 61.23531 36901 ft 492 kts 101°
2026-04-20 04:41 24.08367 61.30818 36904 ft 494 kts 100°
2026-04-20 04:42 24.07398 61.38243 36905 ft 493 kts 91°
2026-04-20 04:42 24.06997 61.45740 36905 ft 495 kts 90°
2026-04-20 04:43 24.06601 61.53266 36902 ft 497 kts 91°
2026-04-20 04:43 24.06167 61.60816 36900 ft 498 kts 91°
2026-04-20 04:44 24.05710 61.68371 36887 ft 498 kts 91°
2026-04-20 04:44 24.05245 61.75917 36908 ft 497 kts 91°
2026-04-20 04:45 24.04782 61.83406 36906 ft 496 kts 91°
2026-04-20 04:45 24.04315 61.90930 36893 ft 495 kts 91°
2026-04-20 04:46 24.03846 61.98435 36904 ft 494 kts 91°
2026-04-20 04:46 24.03373 62.05940 36908 ft 494 kts 91°
2026-04-20 04:47 24.02897 62.13430 36909 ft 494 kts 91°
2026-04-20 04:47 24.02417 62.20923 36902 ft 494 kts 91°
2026-04-20 04:48 24.01934 62.28419 36907 ft 494 kts 91°
2026-04-20 04:48 24.01446 62.35917 36899 ft 494 kts 91°
2026-04-20 04:49 24.00955 62.43415 36896 ft 495 kts 91°
2026-04-20 04:49 24.00460 62.50917 36904 ft 495 kts 92°
2026-04-20 04:50 23.99961 62.58425 36908 ft 495 kts 92°
2026-04-20 04:50 23.99458 62.65931 36902 ft 495 kts 92°
2026-04-20 04:51 23.98952 62.73437 36906 ft 495 kts 92°
2026-04-20 04:51 23.98442 62.80934 36901 ft 494 kts 92°
2026-04-20 04:52 23.97929 62.88429 36912 ft 494 kts 92°